Location: Lugonia Homes
(34.0711°N, 117.1814°W)
Time: 19:48:27
(UTC+00:00)

Daily predictions for brighter satellites

Satellite Brightness Start Highest point End
(mag) Time Altitude Azimuth Time Altitude Azimuth Time Altitude Azimuth
Cosmos 2322 4.3 12:05:00 10° S 12:10:31 55° ESE 12:16:03 10° NNE
BlueWalker 3 3.9 12:25:35 24° NE 12:25:35 24° NE 12:28:17 10° E
USA 215 3.9 12:19:53 10° NE 12:26:15 54° SE 12:32:35 10° SSW
ATLAS 2A CENTAUR R/B 3.4 12:30:56 36° SSW 12:30:56 36° SSW 12:33:51 10° SE
Cosmos 2034 Rocket 4.0 12:28:10 10° S 12:34:31 85° E 12:40:51 10° N
Cosmos 1812 Rocket 4.1 12:34:33 31° NNE 12:36:30 58° E 12:40:53 10° SSE
Cosmos 2219 Rocket 2.7 12:39:50 41° NNW 12:39:50 41° NNW 12:43:55 10° N
Gbstr 26 Del rocket 4.4 12:41:38 31° SSW 12:41:38 31° SSW 12:45:25 10° SSE
Cosmos 1782 4.2 12:38:37 15° NNE 12:41:20 35° E 12:44:53 10° SSE
Timation 2 Rocket 4.2 12:40:59 48° W 12:41:22 48° WSW 12:47:47 10° S
H-2A R/B 1.8 12:38:37 10° N 12:43:34 85° W 12:48:34 10° SSW
Cosmos 494 Rocket 3.8 12:39:46 10° SSW 12:44:52 83° WNW 12:50:00 10° NNE
COSMOS 2455 2.7 12:44:30 46° NW 12:46:18 70° WSW 12:52:15 10° SSE
OAO 1 Rocket 4.3 12:48:41 53° W 12:49:58 88° N 12:55:20 10° E
Cosmos 1844 4.0 12:50:29 43° WSW 12:50:29 43° WSW 12:55:33 10° S
Cosmos 2056 Rocket 3.4 12:51:47 39° NW 12:53:42 68° WSW 12:58:53 10° S
ERS-1 4.3 12:52:13 10° N 12:57:07 67° WNW 13:02:01 10° SSW
Meteor 2-2 Rocket 4.3 12:54:07 10° N 13:00:10 81° W 13:06:10 10° S
CZ-2D R/B 3.1 12:58:18 10° N 13:02:12 71° WNW 13:06:06 10° SSW
SKYMED 2 3.9 12:58:18 10° SSE 13:02:36 67° ENE 13:06:54 10° N
SL-08 R/B 4.0 12:59:14 10° SSE 13:03:48 52° ENE 13:08:18 10° N
Cosmos-2242 3.3 13:07:15 41° W 13:07:15 41° W 13:11:10 10° SSW
NOSS 0 Rocket 4.1 13:03:08 10° SSW 13:09:20 78° ESE 13:15:35 10° NNE
OAO 3 Rocket 3.2 13:07:06 31° WSW 13:09:25 79° SSE 13:14:20 10° E
Cosmos 2195 Rocket 4.5 13:03:18 10° N 13:09:29 85° E 13:15:35 10° S
SJ-6F 4.4 13:08:55 10° NNE 13:13:02 83° E 13:17:06 10° S
ARIANE 5 R/B 2.9 13:08:17 10° N 13:13:10 41° WNW 13:18:01 10° SW
USA 229 DEB 4.1 13:12:24 27° W 13:14:31 34° NW 13:20:26 10° NNE
USA 229 4.1 13:12:22 27° W 13:14:34 34° NW 13:20:30 10° NNE
Cosmos 1544 4.0 13:12:34 10° SSE 13:15:35 43° E 13:18:39 10° NNE
FengYun 1-2 T 4.1 13:11:14 10° N 13:16:50 78° WNW 13:22:20 10° SSW
Cosmos 2221 3.3 13:13:30 10° N 13:17:39 52° E 13:21:48 10° SSE
Sakura Rocket 4.3 13:15:59 14° SW 13:19:31 34° S 13:23:06 10° ESE
Cosmos 1092 Rocket 4.0 13:13:20 10° N 13:19:35 88° E 13:25:53 10° S
Nadezhda 4 Rocket 4.2 13:13:57 10° NNW 13:19:45 45° W 13:25:35 10° SSW
Cosmos 1980 4.0 13:14:47 10° S 13:20:22 68° ESE 13:25:59 10° NNE
CZ-2D R/B 4.2 13:16:51 10° NNE 13:20:22 46° E 13:23:53 10° S
SJ-12 3.8 13:16:29 10° N 13:20:29 64° WNW 13:24:28 10° SSW
COSMOS 2428 2.9 13:15:49 10° SW 13:21:13 45° WNW 13:26:40 10° N
Atlas Centaur 2 3.5 13:19:36 10° SSW 13:22:13 19° SSE 13:25:01 10° ESE
Cosmos 2333 Rocket 4.1 13:24:44 11° NNW 13:24:44 11° NNW 13:25:21 10° NNW
Cosmos 1844 Rocket 4.1 13:23:05 18° WSW 13:23:05 18° WSW 13:26:23 10° SW
Geosat 4.2 13:18:04 10° NNE 13:22:53 47° WNW 13:27:39 10° SW
Helios 1A 3.5 13:19:25 10° SSW 13:23:10 35° W 13:24:50 25° NW
Cosmos 1634 Rocket 3.9 13:17:10 10° S 13:23:19 79° W 13:29:34 10° N
Lacrosse 5 rocket 2.9 13:24:05 20° NNW 13:24:05 20° NNW 13:27:01 10° N
NOAA 12 4.0 13:19:16 10° N 13:24:32 76° WNW 13:29:45 10° SSW
Cosmos 1953 Rocket 3.5 13:20:53 10° S 13:25:19 82° W 13:29:49 10° N
Cosmos 1812 4.3 13:27:43 17° WSW 13:27:43 17° WSW 13:29:06 10° SW
Cosmos 1048 Rocket 4.4 13:26:29 10° SW 13:31:13 36° WNW 13:35:57 10° N
Cosmos 1500 4.0 13:27:49 10° S 13:31:16 49° E 13:34:42 10° NNE
CZ-2C R/B 3.9 13:28:18 10° NNE 13:31:57 45° E 13:35:36 10° S
JB-3 4.3 13:29:12 10° S 13:33:16 77° W 13:37:19 10° NNW
Cosmos 2285 Rocket 3.9 13:28:18 10° SSW 13:34:36 79° WNW 13:41:00 10° NNE
ARGOS 3.1 13:32:33 10° N 13:37:51 60° WNW 13:43:05 10° SSW
ATLAS 5 CENTAUR R/B 3.4 13:35:25 10° S 13:38:16 26° ESE 13:41:10 10° NE
Spot 4 Rocket 4.0 13:33:25 10° N 13:38:29 61° WNW 13:43:31 10° SSW
Cosmos 1331 Rocket 4.2 13:36:00 10° NNW 13:41:13 72° ENE 13:46:22 10° SSE
ERS-2 1.4 13:40:05 10° N 13:43:00 66° WNW 13:45:53 10° SSW
Cosmos 2278 Rocket 3.0 13:38:43 10° N 13:44:13 51° ENE 13:49:41 10° SE
Cosmos 2237 Rocket 2.1 13:39:50 10° SSW 13:45:29 77° WNW 13:51:10 10° NNE
Cosmos 1933 3.9 13:42:17 10° NNW 13:45:51 33° W 13:49:24 10° SSW
SAR-Lupe-2 3.5 13:42:49 10° NNE 13:46:25 87° ESE 13:49:58 10° SSW
USA 281 4.0 13:41:16 10° N 13:46:41 29° WNW 13:52:07 10° WSW
Cosmos 2279 Rocket 4.0 13:41:07 10° S 13:47:21 78° W 13:53:38 10° N
Cosmos 1862 3.9 13:45:18 10° SW 13:48:45 32° W 13:52:13 10° NNW
Cosmos 2151 2.9 13:45:52 10° SSW 13:49:58 62° W 13:54:09 10° N
COSMO-SKYMED 1 3.4 13:46:51 10° SSW 13:50:41 31° W 13:54:33 10° NW
PSLV R/B 3.9 13:46:50 10° N 13:50:53 42° WNW 13:54:54 10° SW
GENESIS II 4.2 13:53:29 10° SW 13:57:15 58° WNW 14:01:05 10° NNE
Meteor 1-31 Rocket 3.5 13:54:44 10° NNE 13:58:28 56° E 14:02:11 10° S
SJ-7 4.4 13:57:54 10° N 14:01:57 62° WNW 14:05:58 10° SSW
BlueWalker 3 2.8 14:00:10 11° WNW 14:03:30 33° SW 14:06:56 10° SSE
USA 215 3.7 14:03:06 10° NNE 14:09:03 39° NW 14:15:00 10° WSW
SMAP 3.0 14:10:28 10° N 14:15:08 78° WNW 14:19:46 10° SSW
Cosmos 1842 Rocket 3.6 14:11:13 10° NNW 14:15:37 66° W 14:20:02 10° S
CZ-3 R/B 2.5 14:11:32 10° W 14:24:54 52° SSW 14:29:37 10° ESE
